EW6790 Weather Reports


Display with metric or nautical units.
time (UTC)temp
F
wind
direction
speed
MPH
gust
MPH
rain 1hr
in
rain 24hr
in
rain mn
in
humidity
%
barometer
mb
20260904110006 0 0.0 0.0 0.00 0.04 0.00 1007.7
20260904104545 0 0.0 0.0 0.00 0.04 0.00 1007.8
20260904103040 0 0.0 0.0 0.00 0.04 0.00 1007.7
20260904101518 0 0.0 0.0 0.00 0.04 0.00 1007.7
20260904100025 72 202 3.0 3.0 0.00 0.04 0.00 83 1007.5
20260904094559 73 204 2.0 3.0 0.00 0.04 0.00 85 1007.6
20260904093100 74 209 3.0 5.0 0.00 0.04 0.00 86 1007.4
20260904091535 74 216 3.0 6.0 0.00 0.05 0.00 86 1007.3
20260904090039 74 212 3.0 6.0 0.00 0.05 0.00 86 1007.2
20260904084514 75 203 4.0 7.0 0.00 0.05 0.00 87 1007.2
20260904083013 75 207 4.0 7.0 0.00 0.05 0.00 87 1007.2
20260904081554 76 204 4.0 7.0 0.00 0.05 0.00 87 1007.2
20260904080054 75 191 4.0 7.0 0.00 0.05 0.00 86 1007.2
20260904074537 75 200 4.0 6.0 0.00 0.05 0.00 86 1007.3
20260904073050 75 191 4.0 6.0 0.00 0.05 0.00 86 1007.4
20260904071516 76 167 4.0 7.0 0.00 0.05 0.00 86 1007.4
20260904070017 76 190 5.0 7.0 0.00 0.05 0.00 87 1007.4
20260904064558 76 185 5.0 7.0 0.00 0.05 0.00 87 1007.5
20260904063058 77 172 4.0 7.0 0.00 0.05 0.00 87 1007.4
20260904061537 77 166 5.0 8.0 0.00 0.05 0.00 87 1007.5
20260904060037 76 174 5.0 7.0 0.00 0.05 0.00 86 1007.4
20260904054518 77 186 5.0 9.0 0.00 0.05 0.00 87 1007.3
20260904053017 77 170 5.0 10.0 0.00 0.05 0.00 87 1007.2
20260904051600 78 169 6.0 9.0 0.00 0.05 0.00 87 1007.1
20260904050059 77 169 6.0 8.0 0.00 0.05 0.00 86 1007.2
20260904044542 77 169 5.0 8.0 0.00 0.05 0.00 81 1007.2
20260904043037 76 146 1.0 4.0 0.00 0.05 0.00 82 1007.3
20260904041518 77 160 3.0 6.0 0.00 0.05 0.00 83 1007.3
20260904040016 77 167 4.0 7.0 0.00 0.05 0.00 85 1007.2
20260904034602 78 153 5.0 9.0 0.00 0.05 0.00 86 1007.1
20260904033107 78 166 4.0 8.0 0.00 0.05 0.00 85 1007.3
20260904031538 77 136 4.0 6.0 0.00 0.05 0.00 85 1007.3
20260904030037 78 141 3.0 6.0 0.00 0.05 0.00 86 1007.2
20260904024518 78 143 1.0 4.0 0.00 0.05 0.00 86 1007.1
20260904023015 79 120 1.0 2.0 0.00 0.05 0.00 87 1007.1
20260904021616 79 142 1.0 2.0 0.00 0.05 0.00 87 1007.1
20260904020100 80 206 0.0 1.0 0.00 0.05 0.00 86 1006.8
20260904014636 80 170 1.0 5.0 0.00 0.05 0.00 86 1006.6
20260904013035 81 186 4.0 8.0 0.00 0.05 0.00 85 1006.3
20260904011532 81 161 6.0 10.0 0.00 0.05 0.00 85 1006.1
20260904010013 82 181 6.0 9.0 0.00 0.05 0.00 84 1006.1
20260904004513 82 169 5.0 8.0 0.00 0.05 0.00 83 1006.1
20260904003106 83 184 4.0 7.0 0.00 0.05 0.00 82 1006.1
20260904001554 84 179 4.0 7.0 0.00 0.05 0.00 81 1006.2
20260904000035 85 190 5.0 10.0 0.00 0.05 0.00 79 1006.0
20260903234535 85 186 5.0 11.0 0.00 0.05 0.00 77 1005.8
20260903233017 84 195 7.0 11.0 0.00 0.05 0.00 78 1005.8
20260903231515 83 198 4.0 9.0 0.00 0.05 0.00 79 1006.0
20260903230106 83 203 7.0 14.0 0.00 0.05 0.00 77 1005.8
20260903224558 84 207 8.0 17.0 0.00 0.05 0.00 75 1005.6
20260903223039 86 213 12.0 17.0 0.00 0.05 0.00 70 1005.2
20260903221539 87 234 11.0 21.0 0.00 0.05 0.00 69 1005.3
20260903220021 86 233 8.0 18.0 0.00 0.05 0.00 70 1005.5
20260903214535 87 223 11.0 17.0 0.00 0.05 0.00 71 1005.3
20260903213101 86 210 11.0 16.0 0.00 0.05 0.00 71 1005.5
20260903211600 86 213 10.0 19.0 0.00 0.05 0.00 69 1006.0
20260903210042 86 199 13.0 20.0 0.00 0.05 0.00 70 1005.7
20260903204541 87 226 10.0 19.0 0.00 0.05 0.00 70 1005.5
20260903203022 86 205 12.0 19.0 0.00 0.05 0.00 68 1005.9
20260903201529 86 220 9.0 23.0 0.00 0.05 0.00 70 1005.9
20260903200003 86 192 15.0 25.0 0.00 0.05 0.00 70 1005.4
20260903194604 85 180 16.0 0.0 0.00 0.00 0.00 71 1005.6
20260903193037 85 208 13.0 22.0 0.00 0.05 0.00 70 1006.0
20260903191536 84 200 14.0 21.0 0.00 0.05 0.00 71 1006.2
20260903190003 84 177 15.0 28.0 0.00 0.05 0.00 70 1006.2
20260903184503 84 172 15.0 27.0 0.00 0.05 0.00 69 1006.1
20260903183043 84 208 20.0 27.0 0.00 0.05 0.00 70 1006.2
20260903181546 83 178 14.0 25.0 0.00 0.05 0.00 72 1006.5
20260903180043 82 169 10.0 23.0 0.00 0.05 0.00 76 1006.5
20260903174516 80 209 12.0 20.0 0.00 0.05 0.00 76 1006.4
20260903173102 80 174 15.0 24.0 0.00 0.05 0.00 75 1006.4
20260903171553 81 176 15.0 26.0 0.00 0.05 0.05 73 1006.6
20260903170100 81 194 15.0 23.0 0.00 0.05 0.05 76 1006.3
20260903164632 79 179 13.0 21.0 0.00 0.05 0.05 78 1006.7
20260903163012 79 154 18.0 26.0 0.00 0.05 0.05 76 1007.0
20260903161510 81 193 13.0 31.0 0.00 0.05 0.05 74 1007.7
20260903160054 79 183 19.0 28.0 0.00 0.05 0.05 75 1007.8
20260903154556 79 193 10.0 25.0 0.00 0.05 0.05 77 1007.9
20260903153034 78 181 10.0 24.0 0.00 0.05 0.05 80 1007.8
20260903151544 77 167 11.0 21.0 0.00 0.05 0.05 83 1007.8
20260903150015 77 134 10.0 23.0 0.00 0.05 0.05 84 1008.1
20260903144520 76 195 9.0 20.0 0.00 0.05 0.05 86 1008.1
20260903143100 75 134 9.0 19.0 0.00 0.05 0.05 85 1008.0
20260903141556 75 113 8.0 17.0 0.01 0.05 0.05 87 1007.8
20260903140051 73 129 9.0 22.0 0.04 0.05 0.05 87 1008.0
20260903134542 72 167 9.0 18.0 0.04 0.05 0.05 87 1007.9
20260903133019 71 191 11.0 17.0 0.04 0.05 0.05 87 1007.6
20260903131517 72 130 6.0 13.0 0.03 0.04 0.04 87 1008.7
20260903130100 73 186 4.0 10.0 0.00 0.01 0.01 87 1008.9
20260903124608 72 165 4.0 10.0 0.00 0.01 0.01 87 1008.5
20260903123042 0 0.0 0.0 0.00 0.01 0.01 1008.0
20260903121537 0 0.0 0.0 0.00 0.01 0.01 1008.2
20260903120036 0 0.0 0.0 0.00 0.01 0.01 1008.3
20260903114540 0 0.0 0.0 0.00 0.01 0.01 1008.1
20260903113024 0 0.0 0.0 0.00 0.01 0.01 1008.1
20260903111520 0 0.0 0.0 0.00 0.01 0.01 1007.8